x

West Santa Barbara 38 Nm West Of Santa Barbara, Ca (46054) Wave Buoy

7:50 - Wed 23rd Aug 2017 All times are PDT. -7 hours from GMT.

  • Sig Wave height 3.6ft
  • Swell Direction
  • Peak Period 8s
  • Average Period 5s
  • Wind
    18mph, 22mph gusts
  • Sea Temp 62°f
  • Ar Temp 60°f
  • Sea Pressure 1015.1mb
  • West Santa Barbara  38 Nm West Of Santa Barbara, Ca
  • West Santa Barbara  38 Nm West Of Santa Barbara, Ca

More Historic Weather Station data

Upgrade to MSW Pro to gain access to the past 30 days of data for over 8000 Wavebouys and Weather Stations around the globe.

Join

Comparision Forecast

View Surf forecast
   
Qua 08/23 7:50 3.5ft 8s 5s 18 22 mph 1015.1mb 62f 60f
7:40  -   -   -  18 22 mph 1015mb 62f 60f
7:30  -   -   -  18 22 mph 1015mb 62f 60f
7:20  -   -   -  20 22 mph 1015mb 62f 60f
7:10  -   -   -  20 25 mph 1014.9mb - 60f
7:00  -   -   -  18 22 mph 1014.9mb 62f 60f
6:50 4ft 9s 5s 18 22 mph 1015mb 62f 60f
6:40 4ft  -  5s 18 22 mph 1015mb 62f 60f
6:30  -   -   -  18 22 mph 1014.9mb 62f 60f
6:20  -   -   -  18 22 mph 1014.8mb 62f 60f
6:10  -   -   -  18 22 mph 1014.8mb 62f 60f
6:00  -   -   -  20 25 mph 1014.7mb 62f 60f
5:50 4ft 10s 5s 18 22 mph 1014.7mb 62f 60f
5:40  -   -   -  18 22 mph 1014.6mb 62f 60f
5:30  -   -   -  18 22 mph 1014.5mb 62f 60f
5:20  -   -   -  20 22 mph 1014.5mb 62f 60f
5:10  -   -   -  20 22 mph 1014.6mb 62f 60f
5:00  -   -   -  20 25 mph 1014.6mb 62f 60f
4:50 4ft 10s 5s 20 25 mph 1014.6mb 62f 60f
4:40 4ft  -  5s 20 25 mph 1014.4mb 62f 60f
4:30  -   -   -  20 25 mph 1014.4mb 62f 60f
4:20  -   -   -  20 25 mph 1014.5mb 62f 60f
4:10  -   -   -  20 25 mph 1014.5mb 62f 60f
4:00  -   -   -  20 27 mph 1014.5mb 62f 60f
3:50 4.5ft 10s 5s 20 25 mph 1014.5mb 62f 60f
3:40 4.5ft  -  5s 20 25 mph 1014.5mb 62f 60f
3:30  -   -   -  20 25 mph 1014.5mb 62f 60f
3:20  -   -   -  20 25 mph 1014.5mb 62f 60f
3:10  -   -   -  20 25 mph 1014.5mb 62f 60f
3:00  -   -   -  20 25 mph 1014.5mb 62f 60f
2:50 5ft 9s 5s 20 27 mph 1014.5mb 62f 60f
2:40 5ft  -  5s 22 27 mph 1014.5mb 62f 60f
2:30  -   -   -  22 27 mph 1014.4mb 62f 60f
2:20  -   -   -  22 29 mph 1014.3mb 62f 60f
2:10  -   -   -  22 27 mph 1014.3mb 62f 60f
2:00  -   -   -  22 27 mph 1014.4mb 62f 60f
1:50 5ft 10s 5s 22 27 mph 1014.3mb 61f 60f
1:40  -   -   -  22 27 mph 1014.3mb 61f 60f
1:30  -   -   -  22 29 mph 1014.3mb 62f 60f
1:20  -   -   -  22 27 mph 1014.3mb 62f 61f
1:10  -   -   -  22 27 mph 1014.4mb 62f 61f
1:00  -   -   -  22 27 mph 1014.3mb 62f 61f
12:50 5ft 10s 5s 22 27 mph 1014.3mb 62f 61f
12:40 5ft  -  5s 22 27 mph 1014.3mb 61f 61f
12:30  -   -   -  20 25 mph 1014.3mb 62f 61f
12:20  -   -   -  20 27 mph 1014.4mb 62f 61f
12:10  -   -   -  22 27 mph 1014.4mb 62f 61f
12:00  -   -   -  22 27 mph 1014.3mb 62f 61f
Ter 08/22 11:50 5ft 11s 5s 22 27 mph 1014.3mb 62f 61f
11:40  -   -   -  25 29 mph 1014.3mb 62f 61f
11:30  -   -   -  25 29 mph 1014.2mb 62f 61f
11:20  -   -   -  25 31 mph 1014.2mb 62f 61f
11:10  -   -   -  25 29 mph 1014.3mb 62f 61f
11:00  -   -   -  22 31 mph 1014.4mb 62f 62f
10:50 4.5ft 5s 5s 25 29 mph 1014.4mb 62f 62f
10:40 4.5ft  -  5s 25 31 mph 1014.5mb 62f 62f
10:30  -   -   -  25 31 mph 1014.6mb 62f 62f
10:20  -   -   -  22 31 mph 1014.5mb 62f 62f
10:10  -   -   -  25 29 mph 1014.6mb 62f 62f
10:00  -   -   -  22 29 mph 1014.7mb - 62f
9:50 4.5ft 5s 5s 25 31 mph 1014.8mb 62f 62f
9:40 4.5ft  -  5s 22 29 mph 1014.8mb 62f 62f
9:30  -   -   -  22 31 mph 1014.9mb 62f 62f
9:20  -   -   -  22 27 mph 1015mb 62f 62f
9:10  -   -   -  22 27 mph 1014.9mb 62f 62f
9:00  -   -   -  25 31 mph 1014.9mb 62f 62f
8:50 4.5ft 5s 5s 25 31 mph 1014.9mb 62f 62f
8:40 4.5ft  -  5s 25 29 mph 1014.8mb 62f 62f
8:30  -   -   -  25 31 mph 1014.9mb 62f 62f
8:20  -   -   -  25 29 mph 1014.8mb 62f 62f
8:10  -   -   -  25 29 mph 1014.7mb 62f 62f
8:00  -   -   -  25 29 mph 1014.5mb 63f 62f
7:50 4.5ft 5s 5s 25 29 mph 1014.5mb 63f 62f
7:40 4.5ft  -  5s 25 31 mph 1014.4mb 62f 62f
7:30  -   -   -  22 29 mph 1014.3mb 62f 62f
7:20  -   -   -  22 29 mph 1014.3mb 63f 63f
7:10  -   -   -  25 29 mph 1014.2mb 63f 63f
7:00  -   -   -  25 29 mph 1014.1mb 63f 63f
6:50 4.5ft 5s 5s 25 29 mph 1014.1mb 63f 63f
6:40 4.5ft  -  5s 25 31 mph 1014.1mb 63f 63f
6:30  -   -   -  25 31 mph 1014.3mb 63f 63f
6:20  -   -   -  22 27 mph 1014.3mb 63f 63f
6:10  -   -   -  22 29 mph 1014.4mb 63f 63f
6:00  -   -   -  22 29 mph 1014.5mb 63f 63f
5:50 4ft 8s 5s 22 29 mph 1014.6mb 64f 63f
5:40  -   -   -  22 27 mph 1014.6mb 64f 63f
5:30  -   -   -  22 27 mph 1014.8mb 64f 63f
5:20  -   -   -  22 27 mph 1014.8mb 64f 63f
5:10  -   -   -  22 27 mph 1014.9mb 64f 63f
5:00  -   -   -  22 25 mph 1015mb 64f 64f
4:50 4ft 8s 5s 22 27 mph 1015.1mb 64f 64f
4:40 4ft  -  5s 22 27 mph 1015.1mb 64f 64f
4:30  -   -   -  20 27 mph 1015.1mb 64f 64f
4:20  -   -   -  22 27 mph 1015.2mb 64f 64f
4:10  -   -   -  20 25 mph 1015.3mb 64f 64f
4:00  -   -   -  20 25 mph 1015.3mb 64f 64f
3:50 4.5ft 9s 5s 20 25 mph 1015.3mb 64f 64f
3:40 4.5ft  -  5s 20 25 mph 1015.4mb 64f 64f
3:30  -   -   -  20 25 mph 1015.4mb 64f 64f
3:20  -   -   -  20 22 mph 1015.6mb 64f 64f
3:10  -   -   -  20 22 mph 1015.5mb 64f 64f
3:00  -   -   -  20 22 mph 1015.7mb 64f 64f
2:50 4.5ft 10s 5s 20 25 mph 1015.7mb 64f 64f
2:40  -   -   -  18 25 mph 1015.7mb 64f 64f
2:30  -   -   -  18 22 mph 1015.8mb 64f 64f
2:20  -   -   -  18 22 mph 1015.8mb 64f 64f
2:10  -   -   -  18 22 mph 1015.9mb 64f 64f
2:00  -   -   -  18 22 mph 1015.9mb 64f 64f
1:50 4.5ft 9s 6s 18 22 mph 1016.1mb 64f 64f
1:40 4.5ft  -  6s 18 22 mph 1016.1mb 64f 64f
12:40  -   -   -  18 20 mph 1016.3mb 64f 64f
12:30  -   -   -  18 22 mph 1016.4mb 64f 64f
12:20  -   -   -  18 22 mph 1016.5mb 64f 64f
12:10  -   -   -  18 22 mph 1016.6mb 64f 64f
12:00  -   -   -  18 22 mph 1016.7mb 64f 64f
11:50 4.5ft 10s 6s 18 20 mph 1016.8mb 64f 64f
11:40  -   -   -  18 20 mph 1016.7mb 64f 64f
11:30  -   -   -  18 22 mph 1016.8mb 64f 64f
11:20  -   -   -  18 20 mph 1016.7mb 64f 64f
11:10  -   -   -  18 20 mph 1016.7mb 64f 64f
11:00  -   -   -  18 22 mph 1016.6mb 64f 64f
10:50 4.5ft 9s 6s 18 20 mph 1016.7mb 64f 64f
10:40  -   -   -  16 20 mph 1016.8mb 64f 64f
10:30  -   -   -  16 18 mph 1016.8mb 64f 64f
10:20  -   -   -  16 20 mph 1016.8mb 64f 64f
10:10  -   -   -  16 20 mph 1016.8mb 64f 64f
10:00  -   -   -  16 18 mph 1016.8mb 64f 64f
9:50 4ft 10s 6s 16 18 mph 1016.8mb 64f 64f
9:40  -   -   -  16 18 mph 1016.8mb 64f 64f
9:30  -   -   -  16 20 mph 1016.8mb 64f 64f
9:20  -   -   -  16 18 mph 1016.7mb 63f 64f
9:10  -   -   -  16 18 mph 1016.7mb 63f 64f
9:00  -   -   -  16 18 mph 1016.7mb 63f 64f
8:50 4.5ft 10s 6s 16 18 mph 1016.6mb 63f 64f
8:40 4.5ft  -  6s 16 18 mph 1016.5mb 63f 64f
8:30  -   -   -  13 18 mph 1016.5mb 63f 64f
8:20  -   -   -  13 18 mph 1016.6mb 63f 64f
8:10  -   -   -  13 18 mph 1016.5mb 63f 64f
8:00  -   -   -  13 18 mph 1016.5mb 63f 64f
7:50 4ft 8s 6s 13 18 mph 1016.4mb 63f 64f
7:40 4ft  -  6s 13 18 mph 1016.4mb 63f 64f
7:30  -   -   -  16 18 mph 1016.4mb 63f 64f
7:20  -   -   -  16 18 mph 1016.3mb 63f 64f
7:10  -   -   -  13 18 mph 1016.3mb 63f 64f
7:00  -   -   -  13 18 mph 1016.2mb 63f 64f
6:50 4ft 10s 7s 13 16 mph 1016.1mb 63f 64f
6:40 4ft  -  7s 13 16 mph 1015.9mb 63f 64f
6:30  -   -   -  13 18 mph 1015.9mb 63f 64f
6:20  -   -   -  13 16 mph 1015.9mb 63f 64f
6:10  -   -   -  13 16 mph 1015.7mb 63f 64f
6:00  -   -   -  11 13 mph 1015.7mb - 64f
5:50 3.5ft 10s 7s 13 16 mph 1015.6mb 63f 64f
5:40 3.5ft  -  7s 11 16 mph 1015.6mb 63f 64f
5:30  -   -   -  11 13 mph 1015.5mb 63f 64f
5:20  -   -   -  11 13 mph 1015.4mb 63f 64f
5:10  -   -   -  11 13 mph 1015.4mb 63f 64f
5:00  -   -   -  11 13 mph 1015.3mb 63f 64f
4:50 4ft 10s 8s 11 13 mph 1015.2mb 63f 64f
4:40 4ft  -  8s 11 13 mph 1015.1mb 63f 64f
4:30  -   -   -  9 13 mph 1015.1mb 63f 64f
4:20  -   -   -  9 11 mph 1015.1mb 63f 64f
4:10  -   -   -  9 11 mph 1015.1mb 63f 64f
4:00  -   -   -  9 11 mph 1015mb 63f 64f
3:50 3.5ft 9s 8s 7 9 mph 1015.1mb 63f 64f
3:40  -   -   -  7 7 mph 1015.1mb 63f 64f
3:30  -   -   -  4 7 mph 1015mb 63f 64f
3:20  -   -   -  4 7 mph 1014.9mb 63f 64f
3:10  -   -   -  4 7 mph 1014.9mb 63f 64f
3:00  -   -   -  4 9 mph 1014.9mb 63f 64f
2:50 3.5ft 10s 7s 4 7 mph 1014.9mb 63f 64f
2:40 3.5ft  -  7s 4 7 mph 1014.9mb 63f 64f
2:30  -   -   -  7 7 mph 1014.9mb 63f 64f
2:20  -   -   -  9 11 mph 1014.8mb 63f 65f
2:10  -   -   -  9 11 mph 1014.8mb 63f 65f
2:00  -   -   -  9 11 mph 1014.8mb 63f 65f
1:50 4ft 11s 7s 9 11 mph 1014.7mb 63f 65f
1:40  -   -   -  9 11 mph 1014.7mb 63f 65f
1:30  -   -   -  11 13 mph 1014.8mb 63f 65f
1:20  -   -   -  11 13 mph 1014.8mb 63f 65f
1:10  -   -   -  9 13 mph 1014.8mb 63f 64f
1:00  -   -   -  9 11 mph 1014.9mb 63f 64f
12:50 4ft 11s 7s 9 11 mph 1015mb 63f 64f
12:40 4ft  -  7s 9 11 mph 1015.1mb 63f 64f
12:30  -   -   -  9 11 mph 1015.1mb 63f 64f
12:20  -   -   -  9 13 mph 1015.1mb 63f 64f
12:10  -   -   -  9 11 mph 1015.1mb 63f 64f
12:00  -   -   -  11 13 mph 1015.1mb 63f 64f
Seg 08/21 11:50 3.5ft 8s 7s 9 13 mph 1015.1mb 63f 64f
11:40 3.5ft  -  7s 9 13 mph 1015.1mb 64f 64f
11:30  -   -   -  11 13 mph 1015.1mb 64f 64f
11:20  -   -   -  11 13 mph 1015.1mb 64f 64f
11:10  -   -   -  11 13 mph 1015.2mb 64f 65f
11:00  -   -   -  11 13 mph 1015.1mb 64f 64f
10:50 4ft 10s 7s 11 13 mph 1015.1mb 64f 64f
10:40  -   -   -  11 13 mph 1015.1mb 64f 64f
10:30  -   -   -  11 13 mph 1015.1mb 64f 64f
10:20  -   -   -  11 13 mph 1015.1mb 64f 64f
10:10  -   -   -  11 13 mph 1015.1mb 63f 64f
10:00  -   -   -  11 13 mph 1015.1mb 63f 64f
9:50 4ft 9s 7s 11 13 mph 1015.1mb 63f 64f
9:40 4ft  -  7s 9 13 mph 1015.1mb 64f 65f
9:30  -   -   -  9 13 mph 1015mb 64f 64f
9:20  -   -   -  9 11 mph 1015.1mb 64f 64f
9:10  -   -   -  11 13 mph 1015.1mb 64f 64f
9:00  -   -   -  11 13 mph 1015.1mb 64f 65f
8:50 4.5ft 10s 8s 9 11 mph 1015mb 64f 65f
8:40 4.5ft  -  8s 9 13 mph 1015mb 64f 64f
8:30  -   -   -  9 11 mph 1015mb 64f 64f
8:20  -   -   -  9 11 mph 1014.9mb 64f 64f
8:10  -   -   -  9 11 mph 1014.9mb 63f 64f
8:00  -   -   -  7 9 mph 1014.9mb 64f 64f
7:50 4.5ft 10s 7s 9 9 mph 1014.9mb 64f 64f
7:40 4.5ft  -  7s 9 9 mph 1014.9mb 64f 64f
7:30  -   -   -  7 9 mph 1014.9mb 63f 65f
7:20  -   -   -  7 9 mph 1014.9mb 64f 65f
7:10  -   -   -  9 9 mph 1014.9mb 64f 65f
7:00  -   -   -  7 9 mph 1014.9mb 64f 65f
6:50 3.5ft 10s 7s 7 9 mph 1014.9mb 64f 65f
6:40 3.5ft  -  7s 7 9 mph 1014.9mb 64f 65f
6:30  -   -   -  9 11 mph 1014.9mb 63f 65f
6:20  -   -   -  9 11 mph 1015mb 63f 65f
6:10  -   -   -  7 9 mph 1015mb 62f -
6:00  -   -   -  7 9 mph 1015mb 61f 65f
5:50 4ft 10s 7s 7 9 mph 1015.1mb 63f 65f
5:40  -   -   -  7 9 mph 1015.1mb 64f 65f
5:30 4ft  -  7s 7 9 mph 1015mb 61f 65f
5:20  -   -   -  7 9 mph 1015.1mb 64f 65f
5:10  -   -   -  7 9 mph 1015.1mb 64f -
5:00  -   -   -  7 9 mph 1015.2mb 63f 65f
4:50 4ft 10s 8s 7 9 mph 1015.3mb 63f 65f
4:40 4ft  -  8s 7 9 mph 1015.4mb 63f 65f
4:30  -   -   -  7 7 mph 1015.5mb 64f 65f
4:20  -   -   -  7 7 mph 1015.6mb 63f 65f
4:10  -   -   -  7 7 mph 1015.7mb 63f 65f
4:00  -   -   -  4 7 mph 1015.8mb 63f 65f
3:50 4.5ft 9s 8s 4 7 mph 1015.9mb 63f 65f
3:40 4.5ft  -  8s 7 7 mph 1015.9mb 63f 65f
3:30  -   -   -  7 7 mph 1015.9mb 63f 65f
3:20  -   -   -  7 9 mph 1016mb 63f 65f
3:10  -   -   -  7 7 mph 1016.1mb 63f 65f
3:00  -   -   -  7 7 mph 1016.2mb 63f 66f
2:50 3.5ft 10s 8s 7 7 mph 1016.2mb 63f 66f
2:40 3.5ft  -  8s 4 7 mph 1016.3mb 63f 66f
2:30  -   -   -  4 7 mph 1016.3mb 63f 66f
2:20  -   -   -  4 7 mph 1016.4mb 63f 66f
2:10  -   -   -  4 7 mph 1016.5mb 63f 66f
2:00  -   -   -  2 4 mph 1016.5mb 63f 67f
1:50 4ft 10s 8s 2 2 mph 1016.5mb 63f 66f
1:40 4ft  -  8s 2 4 mph 1016.5mb 63f 66f
1:30  -   -   -  2 4 mph 1016.5mb 63f 66f
1:20  -   -   -  2 4 mph 1016.5mb 63f 66f
1:10  -   -   -  2 4 mph 1016.5mb 63f 65f
1:00  -   -   -  2 2 mph 1016.6mb 63f 65f
12:50 4.5ft 9s 8s 2 4 mph 1016.6mb 63f 65f
12:40  -   -   -  2 4 mph 1016.7mb 63f 65f
12:30  -   -   -  2 4 mph 1016.7mb 63f 65f
12:20  -   -   -  2 4 mph 1016.6mb 63f 65f
12:10  -   -   -  2 4 mph 1016.6mb 63f 65f
12:00  -   -   -  2 7 mph 1016.6mb 63f 65f
11:50 5ft 10s 8s 7 13 mph 1016.6mb 63f 65f
11:40  -   -   -  4 9 mph 1016.5mb 63f 65f
11:30  -   -   -  4 7 mph 1016.4mb 63f 65f
11:20  -   -   -  4 7 mph 1016.4mb 63f 65f
11:10  -   -   -  4 7 mph 1016.4mb 63f 65f
11:00  -   -   -  4 7 mph 1016.3mb 63f 65f
10:50 5ft 9s 8s 4 7 mph 1016.3mb 63f 65f
10:40  -   -   -  7 9 mph 1016.3mb 63f 65f
10:30  -   -   -  7 9 mph 1016.2mb 63f 65f
10:20  -   -   -  7 9 mph 1016.2mb 63f 65f
10:10  -   -   -  7 11 mph 1016.2mb 63f 65f
10:00  -   -   -  9 13 mph 1016.2mb 63f 65f
9:50 5ft 11s 8s 9 13 mph 1016.1mb 63f 65f
9:40 5ft  -  8s 9 13 mph 1016mb 63f 65f
9:30  -   -   -  7 11 mph 1016mb 63f 65f
9:20  -   -   -  7 11 mph 1015.9mb 63f 65f
9:10  -   -   -  9 11 mph 1015.8mb 63f 64f
9:00  -   -   -  7 9 mph 1015.7mb 63f 65f
8:50 5ft 8s 8s 9 11 mph 1015.7mb 63f 65f
8:40  -   -   -  9 13 mph 1015.6mb 63f 65f
8:30  -   -   -  7 11 mph 1015.7mb 63f 64f
8:20  -   -   -  4 7 mph 1015.7mb 63f 64f
8:10  -   -   -  4 7 mph 1015.5mb 63f 64f
8:00  -   -   -  4 7 mph 1015.4mb 62f 63f
7:50 4.5ft 10s 8s 4 7 mph 1015.4mb 62f 63f
7:40 4.5ft  -  8s 4 9 mph 1015.4mb 62f 63f
7:30  -   -   -  4 9 mph 1015.3mb 62f 63f
7:20  -   -   -  4 7 mph 1015.1mb 62f 63f
7:10  -   -   -  7 7 mph 1015.1mb 62f 63f
7:00  -   -   -  7 9 mph 1015mb 62f 63f
6:50 4.5ft 11s 8s 7 9 mph 1014.9mb 62f 63f
6:40  -   -   -  7 9 mph 1014.9mb 62f 63f
6:30  -   -   -  7 9 mph 1014.8mb 62f 63f
6:20  -   -   -  7 9 mph 1014.6mb 62f 63f
6:10  -   -   -  7 7 mph 1014.6mb 62f 63f
6:00  -   -   -  7 7 mph 1014.5mb 62f 63f
5:50 4.5ft 10s 8s 4 9 mph 1014.4mb 62f 63f
5:40  -   -   -  4 7 mph 1014.4mb 62f 63f
5:30  -   -   -  2 4 mph 1014.3mb 62f 63f
5:20  -   -   -  2 4 mph 1014.3mb 62f 63f
5:10  -   -   -  2 4 mph 1014.3mb 62f 63f
5:00  -   -   -  2 4 mph 1014.2mb 62f 63f
4:50 5ft 11s 8s 2 4 mph 1014.2mb 62f 63f
4:40 5ft  -  8s 2 4 mph 1014.1mb 62f 63f
4:30  -   -   -  2 4 mph 1014.1mb 62f 63f
4:20  -   -   -  4 4 mph 1014.2mb 62f 63f
4:10  -   -   -  4 4 mph 1014.3mb 62f 63f
4:00  -   -   -  4 4 mph 1014.3mb 62f 63f
3:50 5ft 11s 8s 4 7 mph 1014.3mb 62f 63f
3:40  -   -   -  4 7 mph 1014.2mb 62f 63f
3:30  -   -   -  4 7 mph 1014.2mb 62f 63f
3:20  -   -   -  2 7 mph 1014.2mb 62f 63f
3:10  -   -   -  2 7 mph 1014.1mb 62f 63f
3:00  -   -   -  4 7 mph 1014.1mb 62f 63f
2:50 4.5ft 10s 8s 4 7 mph 1014.1mb 62f 63f
2:40  -   -   -  4 7 mph 1014mb 62f 63f
2:30  -   -   -  4 7 mph 1014mb 62f 63f
2:20  -   -   -  4 4 mph 1014mb 62f 63f
2:10  -   -   -  4 7 mph 1014mb 63f 63f
2:00  -   -   -  4 4 mph 1014mb 63f 63f
1:50 4.5ft 11s 8s 4 4 mph 1014.1mb 62f 63f
1:40 4.5ft  -  8s 2 4 mph 1014.1mb 62f 63f
1:30  -   -   -  2 4 mph 1014.1mb 62f 63f
1:20  -   -   -  2 4 mph 1014.1mb 63f 63f
1:10  -   -   -  2 4 mph 1014mb 63f 63f
1:00  -   -   -  2 4 mph 1014mb 62f 63f
12:50 5ft 10s 8s  -  2 mph 1013.9mb 62f 63f
12:40  -   -   -  2 7 mph 1013.8mb 62f 63f
12:30  -   -   -  4 7 mph 1013.9mb 63f 63f
12:20  -   -   -  2 4 mph 1014mb 62f 63f
12:10  -   -   -  2 4 mph 1014mb 63f 63f
12:00  -   -   -  2 7 mph 1013.9mb 63f 63f
Dom 08/20 11:50 5ft 10s 8s 4 7 mph 1013.9mb 63f 63f
11:40  -   -   -  2 4 mph 1013.9mb 63f 63f
11:30  -   -   -  2 4 mph 1013.8mb 62f 63f
11:20  -   -   -  2 4 mph 1013.7mb 62f 63f
11:10  -   -   -  2 4 mph 1013.7mb 62f 63f
11:00  -   -   -  2 2 mph 1013.5mb 62f 64f
10:50 5ft 10s 8s 2 2 mph 1013.5mb 62f 64f
10:40 5ft  -  8s  -  2 mph 1013.4mb 62f 64f
10:30  -   -   -   -  2 mph 1013.4mb 62f 64f
10:20  -   -   -   -  2 mph 1013.4mb 63f 64f
10:10  -   -   -   -  2 mph 1013.4mb 63f 64f
10:00  -   -   -   -  2 mph 1013.3mb 64f 64f
9:50 5ft 11s 8s  -  2 mph 1013.2mb 64f 64f
9:40 5ft  -  8s  -  2 mph 1013.2mb 64f 64f
9:30  -   -   -  2 4 mph 1013mb 64f 64f
9:20  -   -   -  2 4 mph 1012.9mb 64f 64f
9:10  -   -   -  2 4 mph 1012.8mb 64f 64f
9:00  -   -   -  2 4 mph 1012.6mb 63f 64f
8:50 5ft 10s 8s 2 7 mph 1012.6mb 63f 64f
8:40 5ft  -  8s 4 7 mph 1012.4mb 63f 64f
8:30  -   -   -  4 4 mph 1012.3mb 63f 64f
8:20  -   -   -  4 4 mph 1012.2mb 63f 64f
8:10  -   -   -  4 7 mph 1012.1mb 64f 64f
8:00  -   -   -  4 7 mph 1012.1mb 63f 64f
7:50 6ft 9s 8s 7 9 mph 1012mb 63f 64f
7:40  -   -   -  7 9 mph 1011.8mb 64f 64f
7:30  -   -   -  7 9 mph 1011.8mb 64f 64f
7:20  -   -   -  4 9 mph 1011.8mb 65f 64f
7:10  -   -   -  7 9 mph 1011.7mb 65f 64f
7:00  -   -   -  7 9 mph 1011.8mb 64f 64f
6:50 5ft 10s 8s 4 9 mph 1011.7mb 65f 64f
6:20  -   -   -  4 7 mph 1011.7mb 65f 64f
6:10  -   -   -  4 7 mph 1011.8mb 63f 64f
6:00  -   -   -  4 7 mph 1011.8mb 63f 64f
5:50 5ft 10s 8s 4 7 mph 1011.8mb 63f 64f
5:40  -   -   -  4 7 mph 1011.8mb 63f 64f
5:30  -   -   -  7 7 mph 1011.9mb 64f 64f
5:20  -   -   -  4 7 mph 1012mb 64f 64f
5:10  -   -   -  4 7 mph 1012.1mb 64f 64f
5:00  -   -   -  4 7 mph 1012.1mb 64f 64f
4:50 4.5ft 11s 8s 4 4 mph 1012.1mb 64f 64f
4:40 4.5ft  -  8s 4 7 mph 1012.1mb 64f 64f
4:30  -   -   -  4 7 mph 1012.3mb 65f 64f
4:20  -   -   -  4 7 mph 1012.3mb 64f 64f
4:10  -   -   -  4 9 mph 1012.4mb 64f 64f
4:00  -   -   -  7 9 mph 1012.4mb 65f 64f
3:50 4.5ft 10s 8s 7 7 mph 1012.5mb 65f 64f
3:40  -   -   -  7 9 mph 1012.6mb 65f 64f
3:30  -   -   -  7 7 mph 1012.6mb - 64f
3:20  -   -   -  7 9 mph 1012.7mb 65f 64f
3:10  -   -   -  7 9 mph 1012.8mb 65f 64f
3:00  -   -   -  7 9 mph 1013mb 65f 64f
2:50 4.5ft 14s 8s 7 9 mph 1013mb 65f 64f
2:40  -   -   -  7 9 mph 1013.2mb 64f 64f
2:30  -   -   -  9 11 mph 1013.2mb 65f 64f
2:20  -   -   -  9 11 mph 1013.3mb 64f 64f
2:10  -   -   -  9 11 mph 1013.4mb 64f 64f
2:00  -   -   -  9 11 mph 1013.4mb 64f 64f
1:50 4.5ft 10s 8s 9 11 mph 1013.5mb 64f 63f
1:40  -   -   -  9 11 mph 1013.6mb 64f 63f
1:30  -   -   -  9 11 mph 1013.6mb 64f 63f
1:20  -   -   -  9 11 mph 1013.7mb 63f 63f
1:10  -   -   -  9 9 mph 1013.7mb 63f 63f
1:00  -   -   -  9 11 mph 1013.7mb 63f 63f
12:50 4ft 14s 8s 9 11 mph 1013.7mb 63f 63f
12:40  -   -   -  9 11 mph 1013.7mb 63f 63f
12:30  -   -   -  9 11 mph 1013.7mb 63f 63f
12:20  -   -   -  7 11 mph 1013.7mb 63f 63f
12:10  -   -   -  9 11 mph 1013.8mb 63f -
12:00  -   -   -  9 11 mph 1013.8mb 63f 63f
11:50 4ft 14s 8s 7 11 mph 1014mb 63f 63f
11:40  -   -   -  7 9 mph 1014mb 64f 63f
11:30  -   -   -  7 9 mph 1014mb 64f 63f
11:20  -   -   -  7 9 mph 1014mb 64f 63f
11:10  -   -   -  7 9 mph 1014.1mb 64f 63f
11:00  -   -   -  7 9 mph 1014mb 64f 63f
10:50 4.5ft 10s 8s 4 7 mph 1014.1mb 64f 63f
10:40  -   -   -  4 9 mph 1014.1mb 64f 63f
10:30  -   -   -  4 7 mph 1014mb 64f 63f
10:20  -   -   -  4 9 mph 1014mb 64f 63f
10:10  -   -   -  4 9 mph 1013.9mb 64f 63f
10:00  -   -   -  7 11 mph 1013.8mb 64f 63f
9:50 5ft 14s 9s 7 9 mph 1013.9mb 64f 63f
9:40 5ft  -  9s 7 9 mph 1013.8mb 64f 63f
9:30  -   -   -  7 9 mph 1013.7mb 64f 63f
9:20  -   -   -  7 9 mph 1013.7mb 64f 64f
9:10  -   -   -  9 11 mph 1013.6mb 64f 64f
9:00  -   -   -  7 11 mph 1013.7mb 64f 64f
8:50 4.5ft 10s 8s 7 11 mph 1013.7mb 64f 63f
8:40 4.5ft  -  8s 9 11 mph 1013.6mb 64f 63f
8:30  -   -   -  7 11 mph 1013.6mb 63f 63f
8:20  -   -   -  7 9 mph 1013.4mb 64f 63f
8:10  -   -   -  7 9 mph 1013.3mb 63f 62f
8:00  -   -   -  7 11 mph 1013.3mb 63f 62f
7:50 6ft 10s 9s 7 9 mph 1013.3mb 63f 62f
7:40 6ft  -  9s 7 9 mph 1013.4mb 63f 62f
7:30  -   -   -  7 11 mph 1013.4mb 63f 62f
7:20  -   -   -  7 9 mph 1013.3mb 63f 62f
7:10  -   -   -  7 9 mph 1013.1mb 63f 62f
7:00  -   -   -  7 9 mph 1013.2mb 63f 62f
6:50 5ft 10s 9s 7 9 mph 1013.2mb 62f 62f
6:40  -   -   -  7 9 mph 1013mb 62f 62f
6:30  -   -   -  7 9 mph 1013mb - 62f
6:20  -   -   -  7 9 mph 1012.9mb 62f 62f
6:10  -   -   -  7 9 mph 1012.9mb 62f 62f
6:00  -   -   -  7 9 mph 1012.8mb 62f 62f
5:50 4.5ft 11s 9s 7 9 mph 1012.8mb 62f 62f
5:40 4.5ft  -  9s 7 11 mph 1012.8mb 62f 62f
5:30  -   -   -  4 9 mph 1012.8mb 62f 63f
5:20  -   -   -  4 7 mph 1012.8mb 62f 63f
5:10  -   -   -  4 7 mph 1012.8mb 62f 63f
5:00  -   -   -  7 9 mph 1012.7mb 62f 63f
4:50 5ft 10s 9s 4 9 mph 1012.7mb 62f 63f
4:40 5ft  -  9s 4 9 mph 1012.7mb 62f 63f
4:30  -   -   -  4 9 mph 1012.6mb 62f 63f
4:20  -   -   -  4 7 mph 1012.7mb 62f 63f
4:10  -   -   -  4 9 mph 1012.7mb 62f 63f
4:00  -   -   -  7 9 mph 1012.7mb 62f 63f
3:50 4.5ft 10s 9s 7 9 mph 1012.6mb 62f 63f
3:40  -   -   -  7 9 mph 1012.6mb 62f 63f
3:30  -   -   -  7 9 mph 1012.6mb 63f 63f
3:20  -   -   -  7 11 mph 1012.7mb 63f 63f
3:10  -   -   -  7 7 mph 1012.7mb 63f 63f
3:00  -   -   -  7 9 mph 1012.8mb 63f 63f
2:50 4.5ft 15s 8s 4 7 mph 1012.9mb 63f 63f
2:40 4.5ft  -  8s 4 7 mph 1012.9mb 63f 63f
2:30  -   -   -  4 9 mph 1013mb 63f 63f
2:20  -   -   -  4 7 mph 1013mb 64f 63f
2:10  -   -   -  2 7 mph 1013mb 63f 63f
2:00  -   -   -  4 7 mph 1013.1mb 64f 63f
1:50 4.5ft 10s 9s 2 4 mph 1013mb 64f 63f
1:40  -   -   -  2 4 mph 1013.1mb 64f 63f
1:30  -   -   -  4 7 mph 1013.1mb 64f 63f
1:20  -   -   -  4 7 mph 1013.1mb - 63f
1:10  -   -   -  4 7 mph 1013.1mb 64f 63f
1:00  -   -   -  4 7 mph 1013.2mb 64f 63f
12:50 4.5ft 11s 9s 4 7 mph 1013.2mb 64f 63f
12:40  -   -   -  4 7 mph 1013.3mb 64f 63f
12:30  -   -   -  4 7 mph 1013.3mb 64f 63f
12:20  -   -   -  4 4 mph 1013.2mb 64f 63f
12:10  -   -   -  4 7 mph 1013.3mb 64f 63f
12:00  -   -   -  4 4 mph 1013.3mb 64f 63f
Sáb 08/19 11:50 4.5ft 11s 9s 2 4 mph 1013.2mb 64f 63f
11:40  -   -   -  2 4 mph 1013.1mb 64f 63f
11:30  -   -   -  2 4 mph 1013.1mb 64f 63f
11:20  -   -   -  2 4 mph 1013.1mb 64f 63f
11:10  -   -   -  4 4 mph 1013.1mb 64f 63f
11:00  -   -   -  4 4 mph 1013mb 65f 63f
10:50 4.5ft 10s 9s 4 7 mph 1013.1mb 64f 63f
10:30  -   -   -  4 7 mph 1012.9mb 65f 63f
10:20  -   -   -  4 7 mph 1012.8mb 65f 63f
10:10  -   -   -  7 11 mph 1012.9mb 65f 63f
10:00  -   -   -  7 9 mph 1012.9mb 65f 63f
9:50 4.5ft 11s 9s 7 9 mph 1012.8mb 65f 63f
9:40  -   -   -  7 9 mph 1012.7mb 65f 62f
9:30  -   -   -  7 9 mph 1012.8mb 65f 63f
9:20  -   -   -  7 9 mph 1012.7mb 65f 63f
9:10  -   -   -  9 13 mph 1012.6mb 65f 63f
9:00  -   -   -  9 13 mph 1012.5mb 65f 63f
8:50 4ft 15s 9s 9 13 mph 1012.6mb 65f 63f
8:40 4ft  -  9s 9 11 mph 1012.6mb 65f 63f
8:30  -   -   -  9 13 mph 1012.5mb 65f 63f
8:20  -   -   -  11 13 mph 1012.4mb 65f 63f
8:10  -   -   -  11 13 mph 1012.4mb 65f 63f
8:00  -   -   -  9 11 mph 1012.3mb 65f 63f
7:50 4.5ft 10s 8s 9 11 mph 1012.2mb 65f 63f
7:40  -   -   -  9 11 mph 1012.2mb 65f 63f
7:30  -   -   -  9 11 mph 1012.2mb 65f 63f
7:20  -   -   -  9 11 mph 1012.2mb 65f 63f
7:10  -   -   -  7 11 mph 1012.3mb 65f 63f
7:00  -   -   -  7 11 mph 1012.2mb 65f 63f
6:50 4ft 15s 8s 7 11 mph 1012.1mb 64f 63f
6:40  -   -   -  7 11 mph 1012mb 65f 63f
6:30  -   -   -  7 11 mph 1012.1mb 65f 63f
6:20  -   -   -  7 11 mph 1012.2mb 65f 63f
6:10  -   -   -  7 11 mph 1012.2mb 65f 63f
6:00  -   -   -  7 9 mph 1012.3mb 65f 63f
5:50 4.5ft 15s 9s 4 9 mph 1012.4mb 65f 63f
5:40 4.5ft  -  9s 7 9 mph 1012.4mb 65f 63f
5:30  -   -   -  4 9 mph 1012.4mb - 63f
5:20  -   -   -  7 9 mph 1012.6mb - 63f
5:10  -   -   -  7 9 mph 1012.7mb 66f 63f
5:00  -   -   -  7 9 mph 1012.7mb 66f 63f
4:50 4.5ft 15s 9s 7 9 mph 1012.7mb 65f 64f
4:40 4.5ft  -  9s 7 9 mph 1012.9mb 65f 63f
4:30  -   -   -  4 7 mph 1013mb 65f 64f
4:20  -   -   -  7 9 mph 1013.1mb 65f 63f
4:10  -   -   -  4 7 mph 1013.2mb 65f 63f
4:00  -   -   -  4 7 mph 1013.3mb 65f 63f